Mazatlan Airport, Mexico

1:15 PM MDT on May 29, 2017 (GMT -0600)
Gen Rafael Buelna International

Weather History for MMMZ - December, 2013

Change the Weather History Date:

Thursday, December 19, 2013

  Actual Average Record
Temperature  
Mean Temperature 72 °F -  
Max Temperature 84 °F 79 °F 86 °F (2003)
Min Temperature 59 °F 53 °F 48 °F (2011)
Cooling Degree Days 6    
Growing Degree Days 22 (Base 50)    
Moisture  
Dew Point 62 °F    
Average Humidity 80    
Maximum Humidity 94    
Minimum Humidity 51    
Precipitation  
Precipitation 0.00 in - - ()
Sea Level Pressure  
Sea Level Pressure 29.91 in    
Wind  
Wind Speed 6 mph ()    
Max Wind Speed 10 mph    
Max Gust Speed -    
Visibility 9.9 miles    
Events      
Averages and records for this station are not official NWS values.
T = Trace of Precipitation, MM = Missing Value Source: Averaged Metar Reports

Daily Weather History Graph

Daily Weather History Graph

Search for Another Location

Airport or City:

Trip Planner

Search our weather history database for the weather conditions in past years. The results will help you decide how hot, cold, wet, or windy it might be!

Date:

Astronomy

Dec. 19, 2013 Rise Set
Actual Time 6:41 AM MST 5:23 PM MST
Civil Twilight 6:16 AM MST 5:48 PM MST
Nautical Twilight 5:48 AM MST 6:16 PM MST
Astronomical Twilight 5:20 AM MST 6:44 PM MST
Moon 7:38 PM MST (12/19) 8:13 AM MST (12/19)
Length of Visible Light 11h 32m
Length of Day
10h 42m
Waning Gibbous, 95% of the Moon is Illuminated
Dec 19
Waning Gibbous
Dec 25
Last Quarter
Jan 1
New
Jan 7
First Quarter
Jan 15
Full

Hourly Weather History & Observations

Time (MST) Temp. Heat Index Dew Point Humidity Pressure Visibility Wind Dir Wind Speed Gust Speed Precip Events Conditions
12:47 AM 60.8 °F - 57.2 °F 88% 29.93 in 10.0 mi NNE 8.1 mph - N/A   Clear
1:43 AM 60.8 °F - 57.2 °F 88% 29.92 in 10.0 mi NNE 6.9 mph - N/A   Clear
2:00 AM 66 °F - 65 °F 94% 29.94 in - ENE 2.2 mph - -  
2:45 AM 60.8 °F - 55.4 °F 82% 29.92 in 10.0 mi North 6.9 mph - N/A   Clear
3:42 AM 60.8 °F - 55.4 °F 82% 29.92 in 10.0 mi NNE 6.9 mph - N/A   Clear
4:46 AM 59.0 °F - 55.4 °F 88% 29.91 in 10.0 mi NNE 6.9 mph - N/A   Clear
5:47 AM 60.8 °F - 55.4 °F 82% 29.94 in 10.0 mi North 9.2 mph - N/A   Clear
6:45 AM 59.0 °F - 55.4 °F 88% 29.94 in 10.0 mi NNE 8.1 mph - N/A   Clear
7:48 AM 60.8 °F - 57.2 °F 88% 29.96 in 10.0 mi NNE 8.1 mph - N/A   Partly Cloudy
8:51 AM 68.0 °F - 62.6 °F 83% 29.99 in 10.0 mi NNE 5.8 mph - N/A   Partly Cloudy
9:48 AM 73.4 °F - 64.4 °F 73% 29.99 in 10.0 mi SE 8.1 mph - N/A   Clear
10:45 AM 77.0 °F - 64.4 °F 65% 29.98 in 12.0 mi ESE 9.2 mph - N/A   Clear
11:48 AM 84.2 °F 85.6 °F 64.4 °F 51% 29.94 in 12.0 mi SSE 10.4 mph - N/A   Clear
12:44 PM 80.6 °F 82.7 °F 66.2 °F 61% 29.90 in 12.0 mi SSW 10.4 mph - N/A   Partly Cloudy
1:51 PM 78.8 °F - 66.2 °F 65% 29.88 in 12.0 mi South 10.4 mph - N/A   Partly Cloudy
2:00 PM 82 °F - 71 °F 62% 29.90 in - SSW 4.5 mph - -  
2:49 PM 78.8 °F - 66.2 °F 65% 29.87 in 14.0 mi SSW 10.4 mph - N/A   Scattered Clouds
3:50 PM 77.0 °F - 66.2 °F 69% 29.85 in 14.0 mi SSW 9.2 mph - N/A   Scattered Clouds
4:44 PM 75.2 °F - 66.2 °F 73% 29.86 in 12.0 mi SSW 8.1 mph - N/A   Scattered Clouds
5:44 PM 71.6 °F - 64.4 °F 78% 29.86 in 12.0 mi SSW 8.1 mph - N/A   Scattered Clouds
6:46 PM 66.2 °F - 62.6 °F 88% 29.86 in 10.0 mi SSW 3.5 mph - N/A   Scattered Clouds
7:43 PM 66.2 °F - 62.6 °F 88% 29.87 in 10.0 mi SSW 3.5 mph - N/A   Scattered Clouds
8:44 PM 66.2 °F - 62.6 °F 88% 29.88 in 10.0 mi NE 5.8 mph - N/A   Mostly Cloudy
9:26 PM 66.2 °F - 62.6 °F 88% 29.88 in 5.0 mi NNE 6.9 mph - N/A   Mostly Cloudy
9:45 PM 64.4 °F - 60.8 °F 88% 29.88 in 6.0 mi NNE 6.9 mph - N/A   Mostly Cloudy
10:43 PM 64.4 °F - 60.8 °F 88% 29.88 in 3.0 mi NNE 6.9 mph - N/A   Mostly Cloudy
11:43 PM 62.6 °F - 60.8 °F 94% 29.87 in 3.0 mi NE 6.9 mph - N/A   Scattered Clouds